When you browse on this site, cookies collect data to enhance your experience and personalize the content and advertising you see.
Visit our Privacy Policy to learn more. By continuing to use the site, you agree to this use of cookies and data.
  • Em Portugal
  • Lista de países
  • Para 7 dias
  • Temperatura da água
  • Mapa do tempo
  • Widgets de tempo
  • user-avatar
    Iniciar Sessão

    Previsão horária em Pamporovo

    Hoje, 1 Abril, Quarta-feira

    Tempo Temperatura Precipitação Vento Pressão Humidade
    00:00 -3°C° 0.8 mm 1 m/s 622 mmHg 97%
    01:00 -3°C° 0.8 mm 1 m/s 621 mmHg 97%
    02:00 -5°C° 0 mm 2 m/s 621 mmHg 96%
    03:00 -6°C° 0.3 mm 2 m/s 621 mmHg 96%
    04:00 -6°C° 0.3 mm 2 m/s 621 mmHg 95%
    05:00 -7°C° 0.3 mm 2 m/s 620 mmHg 94%
    06:00 -7°C° 0.1 mm 2 m/s 620 mmHg 93%
    07:00 -7°C° 0.1 mm 2 m/s 621 mmHg 91%
    08:00 -7°C° 0 mm 2 m/s 621 mmHg 89%
    09:00 -6°C° 0.1 mm 2 m/s 621 mmHg 87%
    10:00 -5°C° 0.1 mm 2 m/s 621 mmHg 85%
    11:00 -4°C° 0.1 mm 2 m/s 622 mmHg 82%
    12:00 -4°C° 0.1 mm 2 m/s 622 mmHg 83%
    13:00 -3°C° 0.1 mm 2 m/s 622 mmHg 84%
    14:00 -4°C° 0 mm 3 m/s 622 mmHg 83%
    15:00 -5°C° 0.1 mm 3 m/s 621 mmHg 85%
    16:00 -4°C° 0.1 mm 2 m/s 620 mmHg 86%
    17:00 -4°C° 0.1 mm 2 m/s 619 mmHg 88%
    18:00 -5°C° 0.2 mm 2 m/s 619 mmHg 90%
    19:00 -5°C° 0.2 mm 2 m/s 619 mmHg 93%
    20:00 -5°C° 0.2 mm 2 m/s 619 mmHg 95%
    21:00 -6°C° 0.4 mm 2 m/s 619 mmHg 96%
    22:00 -6°C° 0.4 mm 2 m/s 619 mmHg 96%
    23:00 -6°C° 0.4 mm 2 m/s 618 mmHg 97%

    Amanhã, 2 Abril, Quinta-feira

    Tempo Temperatura Precipitação Vento Pressão Humidade
    00:00 -6°C° 0.7 mm 2 m/s 618 mmHg 97%
    01:00 -6°C° 0.7 mm 2 m/s 618 mmHg 96%
    02:00 -7°C° 0.7 mm 2 m/s 618 mmHg 96%
    03:00 -7°C° 1.1 mm 2 m/s 617 mmHg 96%
    04:00 -8°C° 1.1 mm 3 m/s 617 mmHg 95%
    05:00 -9°C° 1.1 mm 3 m/s 617 mmHg 95%
    06:00 -8°C° 0.7 mm 3 m/s 617 mmHg 94%
    07:00 -8°C° 0.7 mm 3 m/s 618 mmHg 93%
    08:00 -8°C° 0.7 mm 3 m/s 618 mmHg 93%
    09:00 -7°C° 0.3 mm 3 m/s 618 mmHg 91%
    10:00 -6°C° 0.3 mm 3 m/s 619 mmHg 90%
    11:00 -5°C° 0.3 mm 3 m/s 619 mmHg 88%
    12:00 -4°C° 0.1 mm 3 m/s 619 mmHg 88%
    13:00 -4°C° 0.1 mm 3 m/s 620 mmHg 88%
    14:00 -2°C° 0.1 mm 3 m/s 620 mmHg 87%
    15:00 -3°C° 0.1 mm 2 m/s 620 mmHg 88%
    16:00 -3°C° 0.1 mm 2 m/s 620 mmHg 88%
    17:00 -3°C° 0.1 mm 2 m/s 620 mmHg 88%
    18:00 -2°C° 0 mm 1 m/s 619 mmHg 90%
    19:00 -3°C° 0 mm 1 m/s 619 mmHg 92%
    20:00 -6°C° 0 mm 1 m/s 619 mmHg 94%
    21:00 -6°C° 0 mm 1 m/s 619 mmHg 93%
    22:00 -6°C° 0 mm 1 m/s 619 mmHg 91%
    23:00 -7°C° 0 mm 1 m/s 619 mmHg 90%

    Depois de amanhã, 3 Abril, Sexta-feira

    Tempo Temperatura Precipitação Vento Pressão Humidade
    00:00 -7°C° 0 mm 1 m/s 619 mmHg 90%
    01:00 -6°C° 0 mm 1 m/s 619 mmHg 89%
    02:00 -6°C° 0 mm 1 m/s 619 mmHg 89%
    03:00 -6°C° 0 mm 1 m/s 619 mmHg 89%
    04:00 -6°C° 0 mm 1 m/s 619 mmHg 90%
    05:00 -6°C° 0 mm 1 m/s 619 mmHg 90%
    06:00 -4°C° 0 mm 1 m/s 620 mmHg 90%
    07:00 -3°C° 0 mm 1 m/s 620 mmHg 90%
    08:00 -1°C° 0 mm 1 m/s 621 mmHg 89%
    09:00 0°C° 0 mm 1 m/s 621 mmHg 88%
    10:00 +1°C° 0 mm 1 m/s 622 mmHg 86%
    11:00 +2°C° 0 mm 1 m/s 622 mmHg 85%
    12:00 +3°C° 0 mm 1 m/s 622 mmHg 84%
    13:00 +3°C° 0 mm 1 m/s 622 mmHg 84%
    14:00 +3°C° 0 mm 1 m/s 622 mmHg 84%
    15:00 +3°C° 0 mm 1 m/s 622 mmHg 86%
    16:00 +2°C° 0 mm 1 m/s 622 mmHg 87%
    17:00 +2°C° 0 mm 1 m/s 621 mmHg 88%
    18:00 +1°C° 0 mm 1 m/s 621 mmHg 90%
    19:00 +1°C° 0 mm 1 m/s 621 mmHg 92%
    20:00 -1°C° 0 mm 0 m/s 621 mmHg 94%
    21:00 -2°C° 0 mm 0 m/s 621 mmHg 94%
    22:00 -2°C° 0 mm 0 m/s 621 mmHg 93%
    23:00 -2°C° 0 mm 0 m/s 621 mmHg 93%

    4 Abril, Sábado

    Tempo Temperatura Precipitação Vento Pressão Humidade
    00:00 -2°C° 0 mm 0 m/s 621 mmHg 93%
    01:00 -2°C° 0 mm 0 m/s 621 mmHg 93%
    02:00 -2°C° 0 mm 0 m/s 621 mmHg 92%
    03:00 -2°C° 0.2 mm 0 m/s 621 mmHg 94%
    04:00 -2°C° 0.2 mm 0 m/s 621 mmHg 95%
    05:00 -2°C° 0.2 mm 0 m/s 621 mmHg 97%
    06:00 -1°C° 0 mm 1 m/s 622 mmHg 96%
    07:00 0°C° 0 mm 1 m/s 622 mmHg 96%
    08:00 0°C° 0 mm 1 m/s 622 mmHg 95%
    09:00 +1°C° 0 mm 1 m/s 622 mmHg 94%
    10:00 +1°C° 0 mm 1 m/s 623 mmHg 93%
    11:00 +2°C° 0 mm 1 m/s 623 mmHg 92%
    12:00 +1°C° 0.1 mm 1 m/s 623 mmHg 93%
    13:00 +1°C° 0.1 mm 1 m/s 623 mmHg 94%
    14:00 +1°C° 0.1 mm 1 m/s 623 mmHg 95%
    15:00 -1°C° 0.4 mm 2 m/s 622 mmHg 96%
    16:00 -1°C° 0.4 mm 2 m/s 622 mmHg 96%
    17:00 -2°C° 0.4 mm 2 m/s 622 mmHg 97%
    18:00 -2°C° 1.1 mm 2 m/s 622 mmHg 97%
    19:00 -2°C° 1.1 mm 2 m/s 622 mmHg 97%
    20:00 -2°C° 1.1 mm 3 m/s 622 mmHg 97%
    21:00 -2°C° 0.9 mm 3 m/s 622 mmHg 97%
    22:00 -2°C° 0.9 mm 3 m/s 622 mmHg 97%
    23:00 -2°C° 0.9 mm 3 m/s 623 mmHg 97%

    5 Abril, Domingo

    Tempo Temperatura Precipitação Vento Pressão Humidade
    00:00 -4°C° 1.1 mm 3 m/s 622 mmHg 97%
    01:00 -4°C° 1.1 mm 4 m/s 622 mmHg 97%
    02:00 -4°C° 1.1 mm 4 m/s 622 mmHg 97%
    03:00 -4°C° 1.1 mm 4 m/s 622 mmHg 96%
    04:00 -5°C° 1.1 mm 5 m/s 622 mmHg 96%
    05:00 -6°C° 1.1 mm 5 m/s 622 mmHg 96%
    06:00 -6°C° 1 mm 5 m/s 622 mmHg 94%
    07:00 -6°C° 1 mm 6 m/s 623 mmHg 93%
    08:00 -7°C° 1 mm 7 m/s 623 mmHg 91%
    09:00 -7°C° 1 mm 7 m/s 623 mmHg 92%
    10:00 -7°C° 1 mm 7 m/s 623 mmHg 92%
    11:00 -6°C° 1 mm 7 m/s 624 mmHg 92%
    12:00 -6°C° 1.4 mm 7 m/s 624 mmHg 93%
    13:00 -6°C° 1.4 mm 7 m/s 624 mmHg 94%
    14:00 -6°C° 1.4 mm 8 m/s 624 mmHg 95%
    15:00 -6°C° 1.3 mm 8 m/s 624 mmHg 94%
    16:00 -7°C° 1.3 mm 7 m/s 624 mmHg 94%
    17:00 -7°C° 1.3 mm 7 m/s 624 mmHg 93%
    18:00 -7°C° 0.5 mm 7 m/s 624 mmHg 91%
    19:00 -8°C° 0.5 mm 7 m/s 624 mmHg 88%
    20:00 -8°C° 0.5 mm 6 m/s 625 mmHg 85%
    21:00 -9°C° 0 mm 6 m/s 625 mmHg 83%
    22:00 -10°C° 0 mm 5 m/s 625 mmHg 81%
    23:00 -11°C° 0 mm 5 m/s 625 mmHg 79%

    6 Abril, Segunda-feira

    Tempo Temperatura Precipitação Vento Pressão Humidade
    00:00 -11°C° 0 mm 5 m/s 625 mmHg 80%
    01:00 -11°C° 0 mm 5 m/s 625 mmHg 81%
    02:00 -11°C° 0 mm 5 m/s 625 mmHg 82%
    03:00 -11°C° 0 mm 5 m/s 625 mmHg 84%
    04:00 -10°C° 0 mm 5 m/s 626 mmHg 85%
    05:00 -10°C° 0 mm 5 m/s 626 mmHg 87%
    06:00 -10°C° 0.1 mm 5 m/s 626 mmHg 86%
    07:00 -10°C° 0.1 mm 5 m/s 627 mmHg 85%
    08:00 -10°C° 0.1 mm 5 m/s 627 mmHg 84%
    09:00 -9°C° 0 mm 6 m/s 628 mmHg 81%
    10:00 -8°C° 0 mm 6 m/s 628 mmHg 79%
    11:00 -6°C° 0 mm 6 m/s 628 mmHg 77%
    12:00 -7°C° 0 mm 7 m/s 629 mmHg 76%
    13:00 -6°C° 0 mm 7 m/s 629 mmHg 76%
    14:00 -5°C° 0 mm 8 m/s 629 mmHg 75%
    15:00 -4°C° 0 mm 7 m/s 629 mmHg 75%
    16:00 -4°C° 0 mm 7 m/s 629 mmHg 75%
    17:00 -4°C° 0 mm 6 m/s 629 mmHg 75%
    18:00 -6°C° 0 mm 6 m/s 629 mmHg 77%
    19:00 -7°C° 0 mm 5 m/s 628 mmHg 79%
    20:00 -9°C° 0 mm 4 m/s 628 mmHg 81%
    21:00 -10°C° 0 mm 4 m/s 628 mmHg 81%
    22:00 -10°C° 0 mm 4 m/s 628 mmHg 81%
    23:00 -10°C° 0 mm 3 m/s 628 mmHg 82%
    Mostrar mais